When you browse on this site, cookies collect data to enhance your experience and personalize the content and advertising you see.
Visit our Privacy Policy to learn more. By continuing to use the site, you agree to this use of cookies and data.
  • In Österreich
  • Länderverzeichnis
  • Für 7 Tage
  • Wassertemperatur
  • Satellitenkarten
  • Wetterkarte
  • News
  • Widgets
  • user-avatar
    Anmelden

    Stündliche Wetter Plotavec

    Heute, 20 November, Dienstag

    Zeit Temperatur Niederschläge Wind Luftdruck Luftfeuchtigkeit
    00:00 -6°C° 0 mm 2 m/S 760 mmHg 80%
    01:00 -6°C° 0 mm 2 m/S 760 mmHg 80%
    02:00 -3°C° 0 mm 1 m/S 759 mmHg 80%
    03:00 -3°C° 0 mm 1 m/S 759 mmHg 79%
    04:00 -6°C° 0 mm 2 m/S 758 mmHg 79%
    05:00 -6°C° 0 mm 2 m/S 758 mmHg 79%
    06:00 -6°C° 0 mm 2 m/S 758 mmHg 78%
    07:00 -6°C° 0 mm 2 m/S 757 mmHg 78%
    08:00 -6°C° 0 mm 2 m/S 757 mmHg 77%
    09:00 -5°C° 0 mm 2 m/S 757 mmHg 74%
    10:00 -5°C° 0 mm 2 m/S 756 mmHg 71%
    11:00 -4°C° 0 mm 2 m/S 756 mmHg 68%
    12:00 -5°C° 0 mm 3 m/S 755 mmHg 68%
    13:00 -4°C° 0 mm 3 m/S 755 mmHg 69%
    14:00 -4°C° 0 mm 3 m/S 754 mmHg 69%
    15:00 -4°C° 0 mm 4 m/S 754 mmHg 71%
    16:00 -4°C° 0 mm 4 m/S 753 mmHg 73%
    17:00 -5°C° 0 mm 4 m/S 753 mmHg 74%
    18:00 -5°C° 0 mm 4 m/S 753 mmHg 76%
    19:00 -5°C° 0 mm 4 m/S 752 mmHg 78%
    20:00 -5°C° 0 mm 4 m/S 752 mmHg 80%
    21:00 -5°C° 0 mm 4 m/S 752 mmHg 82%
    22:00 -5°C° 0 mm 4 m/S 752 mmHg 84%
    23:00 -4°C° 0 mm 4 m/S 752 mmHg 86%

    Morgen, 21 November, Mittwoch

    Zeit Temperatur Niederschläge Wind Luftdruck Luftfeuchtigkeit
    00:00 -4°C° 0 mm 4 m/S 752 mmHg 86%
    01:00 -4°C° 0 mm 4 m/S 752 mmHg 86%
    02:00 -3°C° 0 mm 4 m/S 752 mmHg 86%
    03:00 -3°C° 0 mm 4 m/S 752 mmHg 87%
    04:00 -3°C° 0 mm 4 m/S 752 mmHg 87%
    05:00 -3°C° 0 mm 4 m/S 753 mmHg 87%
    06:00 -4°C° 0 mm 4 m/S 753 mmHg 87%
    07:00 -4°C° 0 mm 4 m/S 753 mmHg 87%
    08:00 -4°C° 0 mm 3 m/S 753 mmHg 87%
    09:00 -4°C° 0 mm 4 m/S 753 mmHg 82%
    10:00 -3°C° 0 mm 4 m/S 753 mmHg 78%
    11:00 -3°C° 0 mm 4 m/S 754 mmHg 74%
    12:00 -2°C° 0 mm 3 m/S 753 mmHg 76%
    13:00 -2°C° 0 mm 3 m/S 753 mmHg 79%
    14:00 -4°C° 0 mm 3 m/S 753 mmHg 81%
    15:00 -4°C° 0 mm 3 m/S 753 mmHg 84%
    16:00 -4°C° 0 mm 3 m/S 753 mmHg 86%
    17:00 -5°C° 0 mm 4 m/S 753 mmHg 88%
    18:00 -5°C° 0 mm 4 m/S 752 mmHg 86%
    19:00 -5°C° 0 mm 4 m/S 752 mmHg 83%
    20:00 -7°C° 0 mm 4 m/S 752 mmHg 81%
    21:00 -7°C° 0 mm 4 m/S 752 mmHg 82%
    22:00 -7°C° 0 mm 4 m/S 751 mmHg 82%
    23:00 -7°C° 0 mm 4 m/S 751 mmHg 83%

    übermorgen, 22 November, Donnerstag

    Zeit Temperatur Niederschläge Wind Luftdruck Luftfeuchtigkeit
    00:00 -7°C° 0 mm 4 m/S 750 mmHg 84%
    01:00 -7°C° 0 mm 4 m/S 750 mmHg 85%
    02:00 -5°C° 0 mm 4 m/S 750 mmHg 86%
    03:00 -5°C° 0 mm 4 m/S 749 mmHg 86%
    04:00 -4°C° 0 mm 4 m/S 749 mmHg 86%
    05:00 -5°C° 0 mm 5 m/S 748 mmHg 86%
    06:00 -5°C° 0 mm 5 m/S 748 mmHg 85%
    07:00 -4°C° 0 mm 5 m/S 747 mmHg 83%
    08:00 -4°C° 0 mm 6 m/S 747 mmHg 82%
    09:00 -4°C° 0 mm 6 m/S 746 mmHg 81%
    10:00 -4°C° 0 mm 6 m/S 746 mmHg 79%
    11:00 -4°C° 0 mm 6 m/S 745 mmHg 78%
    12:00 -3°C° 0.1 mm 6 m/S 745 mmHg 78%
    13:00 -3°C° 0.1 mm 6 m/S 745 mmHg 79%
    14:00 -3°C° 0.1 mm 6 m/S 744 mmHg 80%
    15:00 -3°C° 0.1 mm 6 m/S 744 mmHg 79%
    16:00 -3°C° 0.1 mm 6 m/S 744 mmHg 79%
    17:00 -3°C° 0.1 mm 6 m/S 744 mmHg 79%
    18:00 -3°C° 0 mm 6 m/S 744 mmHg 78%
    19:00 -3°C° 0 mm 6 m/S 745 mmHg 78%
    20:00 -4°C° 0 mm 6 m/S 745 mmHg 77%
    21:00 -4°C° 0.1 mm 6 m/S 746 mmHg 75%
    22:00 -4°C° 0.1 mm 5 m/S 746 mmHg 73%
    23:00 -4°C° 0.1 mm 5 m/S 747 mmHg 71%

    23 November, Freitag

    Zeit Temperatur Niederschläge Wind Luftdruck Luftfeuchtigkeit
    00:00 -5°C° 0 mm 5 m/S 748 mmHg 72%
    01:00 -5°C° 0 mm 5 m/S 748 mmHg 72%
    02:00 -6°C° 0 mm 5 m/S 749 mmHg 72%
    03:00 -5°C° 0 mm 4 m/S 750 mmHg 73%
    04:00 -5°C° 0 mm 4 m/S 750 mmHg 74%
    05:00 -5°C° 0 mm 4 m/S 751 mmHg 75%
    06:00 -7°C° 0 mm 4 m/S 751 mmHg 77%
    07:00 -6°C° 0 mm 3 m/S 752 mmHg 79%
    08:00 -6°C° 0 mm 3 m/S 753 mmHg 80%
    09:00 -6°C° 0 mm 3 m/S 753 mmHg 78%
    10:00 -5°C° 0 mm 3 m/S 753 mmHg 75%
    11:00 -4°C° 0 mm 2 m/S 753 mmHg 72%
    12:00 -4°C° 0 mm 2 m/S 753 mmHg 72%
    13:00 -4°C° 0 mm 2 m/S 753 mmHg 73%
    14:00 -4°C° 0 mm 2 m/S 753 mmHg 73%
    15:00 -5°C° 0 mm 3 m/S 753 mmHg 76%
    16:00 -5°C° 0 mm 3 m/S 753 mmHg 79%
    17:00 -6°C° 0 mm 3 m/S 753 mmHg 82%
    18:00 -6°C° 0 mm 3 m/S 752 mmHg 83%
    19:00 -6°C° 0 mm 3 m/S 752 mmHg 85%
    20:00 -6°C° 0 mm 3 m/S 752 mmHg 86%
    21:00 -5°C° 0 mm 4 m/S 751 mmHg 86%
    22:00 -5°C° 0 mm 4 m/S 751 mmHg 86%
    23:00 -4°C° 0 mm 4 m/S 750 mmHg 86%

    24 November, Samstag

    Zeit Temperatur Niederschläge Wind Luftdruck Luftfeuchtigkeit
    00:00 -4°C° 0 mm 4 m/S 750 mmHg 85%
    01:00 -5°C° 0 mm 5 m/S 749 mmHg 84%
    02:00 -4°C° 0 mm 5 m/S 748 mmHg 82%
    03:00 -4°C° 0.1 mm 5 m/S 748 mmHg 82%
    04:00 -4°C° 0.1 mm 5 m/S 747 mmHg 81%
    05:00 -4°C° 0.1 mm 5 m/S 746 mmHg 81%
    06:00 -4°C° 0.1 mm 5 m/S 746 mmHg 80%
    07:00 -4°C° 0.1 mm 5 m/S 746 mmHg 79%
    08:00 -4°C° 0.1 mm 5 m/S 745 mmHg 78%
    09:00 -4°C° 0 mm 5 m/S 745 mmHg 77%
    10:00 -4°C° 0 mm 5 m/S 744 mmHg 76%
    11:00 -4°C° 0 mm 6 m/S 744 mmHg 75%
    12:00 -4°C° 0 mm 5 m/S 744 mmHg 75%
    13:00 -4°C° 0 mm 5 m/S 743 mmHg 75%
    14:00 -4°C° 0 mm 5 m/S 743 mmHg 75%
    15:00 -4°C° 0 mm 5 m/S 743 mmHg 76%
    16:00 -4°C° 0 mm 5 m/S 742 mmHg 78%
    17:00 -4°C° 0 mm 5 m/S 742 mmHg 79%
    18:00 -4°C° 0.1 mm 5 m/S 742 mmHg 80%
    19:00 -4°C° 0.1 mm 5 m/S 743 mmHg 82%
    20:00 -4°C° 0.1 mm 5 m/S 743 mmHg 83%
    21:00 -3°C° 0 mm 4 m/S 743 mmHg 84%
    22:00 -3°C° 0 mm 4 m/S 743 mmHg 85%
    23:00 -3°C° 0 mm 4 m/S 744 mmHg 86%

    25 November, Sonntag

    Zeit Temperatur Niederschläge Wind Luftdruck Luftfeuchtigkeit
    00:00 -2°C° 0 mm 3 m/S 744 mmHg 88%
    01:00 -4°C° 0 mm 3 m/S 744 mmHg 90%
    02:00 -4°C° 0 mm 3 m/S 744 mmHg 91%
    03:00 -4°C° 0 mm 3 m/S 744 mmHg 92%
    04:00 -4°C° 0 mm 3 m/S 744 mmHg 92%
    05:00 -4°C° 0 mm 2 m/S 744 mmHg 92%
    06:00 -4°C° 0 mm 2 m/S 745 mmHg 92%
    07:00 -4°C° 0 mm 2 m/S 745 mmHg 92%
    08:00 -4°C° 0 mm 2 m/S 745 mmHg 92%
    09:00 -4°C° 0 mm 2 m/S 745 mmHg 89%
    10:00 -4°C° 0 mm 3 m/S 745 mmHg 86%
    11:00 -4°C° 0 mm 3 m/S 745 mmHg 83%
    12:00 -4°C° 0 mm 3 m/S 745 mmHg 83%
    13:00 -4°C° 0 mm 3 m/S 745 mmHg 82%
    14:00 -3°C° 0 mm 2 m/S 745 mmHg 81%
    15:00 -3°C° 0 mm 2 m/S 745 mmHg 85%
    16:00 -4°C° 0 mm 2 m/S 745 mmHg 88%
    17:00 -5°C° 0 mm 2 m/S 745 mmHg 91%
    18:00 -5°C° 0 mm 2 m/S 745 mmHg 92%
    19:00 -5°C° 0 mm 2 m/S 745 mmHg 93%
    20:00 -4°C° 0 mm 1 m/S 745 mmHg 94%
    21:00 -4°C° 0 mm 1 m/S 745 mmHg 94%
    22:00 -4°C° 0 mm 1 m/S 745 mmHg 94%
    23:00 -4°C° 0 mm 1 m/S 745 mmHg 95%
    Mehr zeigen